Location: Sobotiste
(48.7170°N, 17.4000°E)
Time: 07:04:53
(UTC+02:00)

CAS-6 - Pass Details

Date: 23 March 2026
Orbit: 601 x 618 km, 97.8° (Epoch: 15 April)

Event Time Altitude Azimuth Distance (km) Brightness Sun altitude
Exits shadow 22:37:39 13° 316° (NW) 1,741 ? -37.1°
Drops below altitude 10° 22:38:21 10° 322° (NW) 1,960 ? -37.2°
Sets 22:40:52 0° 336° (NNW) 2,872 ? -37.3°
